Time,TemperatureF,DewpointF,PressureIn,WindDirection,WindDirectionDegrees,WindSpeedMPH,WindSpeedGustMPH,Humidity,HourlyPrecipIn,Conditions,Clouds,dailyrainin,SoftwareType,DateUTC
2013-07-28 00:02:00,77.0,66.0,29.96,SW,221,0.0,0.0,70,0.00,,,0.00,,2013-07-28 05:02:00,
2013-07-28 00:12:00,77.0,67.0,29.96,SW,221,0.0,0.0,72,0.00,,,0.00,,2013-07-28 05:12:00,
2013-07-28 00:22:00,77.0,67.0,29.96,SW,221,0.0,0.0,72,0.00,,,0.00,,2013-07-28 05:22:00,
2013-07-28 00:32:00,76.0,67.0,29.96,SW,220,0.0,0.0,73,0.00,,,0.00,,2013-07-28 05:32:00,
2013-07-28 00:43:00,75.0,67.0,29.96,SW,221,0.0,0.0,75,0.00,,,0.00,,2013-07-28 05:43:00,
2013-07-28 00:52:00,75.0,67.0,29.96,SW,221,0.0,0.0,75,0.00,,,0.00,,2013-07-28 05:52:00,
2013-07-28 01:02:00,75.0,67.0,29.96,SW,221,0.0,0.0,77,0.00,,,0.00,,2013-07-28 06:02:00,
2013-07-28 01:12:00,74.0,67.0,29.95,SW,220,0.0,0.0,79,0.00,,,0.00,,2013-07-28 06:12:00,
2013-07-28 01:22:00,74.0,67.0,29.95,SW,220,0.0,0.0,79,0.00,,,0.00,,2013-07-28 06:22:00,
2013-07-28 01:32:00,74.0,68.0,29.95,SW,221,0.0,0.0,81,0.00,,,0.00,,2013-07-28 06:32:00,
2013-07-28 01:42:00,73.0,67.0,29.95,SW,221,0.0,0.0,82,0.00,,,0.00,,2013-07-28 06:42:00,
2013-07-28 01:52:00,73.0,67.0,29.95,SW,221,0.0,0.0,82,0.00,,,0.00,,2013-07-28 06:52:00,
2013-07-28 02:02:00,72.0,67.0,29.95,SW,221,0.0,0.0,84,0.00,,,0.00,,2013-07-28 07:02:00,
2013-07-28 02:12:00,72.0,67.0,29.94,SW,221,0.0,0.0,84,0.00,,,0.00,,2013-07-28 07:12:00,
2013-07-28 02:22:00,72.0,67.0,29.94,SW,221,0.0,0.0,84,0.00,,,0.00,,2013-07-28 07:22:00,
2013-07-28 02:32:00,72.0,68.0,29.94,SW,221,0.0,0.0,86,0.00,,,0.00,,2013-07-28 07:32:00,
2013-07-28 02:42:00,72.0,68.0,29.94,SW,221,0.0,0.0,86,0.00,,,0.00,,2013-07-28 07:42:00,
2013-07-28 02:53:00,71.0,67.0,29.94,SW,221,0.0,0.0,86,0.00,,,0.00,,2013-07-28 07:53:00,
2013-07-28 03:02:00,71.0,67.0,29.94,SW,221,0.0,0.0,86,0.00,,,0.00,,2013-07-28 08:02:00,
2013-07-28 03:12:00,71.0,67.0,29.94,SW,221,0.0,0.0,86,0.00,,,0.00,,2013-07-28 08:12:00,
2013-07-28 03:33:00,71.0,67.0,29.94,SW,221,0.0,0.0,87,0.00,,,0.00,,2013-07-28 08:33:00,
2013-07-28 03:42:00,71.0,67.0,29.94,SW,221,0.0,0.0,87,0.00,,,0.00,,2013-07-28 08:42:00,
2013-07-28 03:53:00,70.0,66.0,29.93,SW,221,0.0,0.0,87,0.00,,,0.00,,2013-07-28 08:53:00,
2013-07-28 04:02:00,70.0,66.0,29.93,SW,221,0.0,0.0,88,0.00,,,0.00,,2013-07-28 09:02:00,
2013-07-28 04:12:00,70.0,66.0,29.93,SW,221,0.0,0.0,88,0.00,,,0.00,,2013-07-28 09:12:00,
2013-07-28 04:22:00,70.0,66.0,29.93,SW,221,0.0,0.0,88,0.00,,,0.00,,2013-07-28 09:22:00,
2013-07-28 04:32:00,70.0,66.0,29.93,SW,221,0.0,0.0,88,0.00,,,0.00,,2013-07-28 09:32:00,
2013-07-28 04:43:00,70.0,66.0,29.93,SW,221,0.0,0.0,88,0.00,,,0.00,,2013-07-28 09:43:00,
2013-07-28 04:53:00,70.0,66.0,29.93,SW,221,0.0,0.0,88,0.00,,,0.00,,2013-07-28 09:53:00,
2013-07-28 05:02:00,69.0,65.0,29.93,SW,221,0.0,0.0,88,0.00,,,0.00,,2013-07-28 10:02:00,
2013-07-28 05:12:00,69.0,65.0,29.93,SW,221,0.0,0.0,88,0.00,,,0.00,,2013-07-28 10:12:00,
2013-07-28 05:22:00,69.0,66.0,29.93,SW,221,0.0,0.0,89,0.00,,,0.00,,2013-07-28 10:22:00,
2013-07-28 05:32:00,69.0,66.0,29.94,SW,221,0.0,0.0,89,0.00,,,0.00,,2013-07-28 10:32:00,
2013-07-28 05:42:00,69.0,66.0,29.94,SW,221,0.0,0.0,89,0.00,,,0.00,,2013-07-28 10:42:00,
2013-07-28 05:53:00,69.0,66.0,29.94,SW,221,0.0,0.0,90,0.00,,,0.00,,2013-07-28 10:53:00,
2013-07-28 06:12:00,69.0,66.0,29.94,SW,221,0.0,0.0,90,0.00,,,0.00,,2013-07-28 11:12:00,
2013-07-28 06:22:00,69.0,66.0,29.95,SW,221,0.0,0.0,91,0.00,,,0.00,,2013-07-28 11:22:00,
2013-07-28 06:33:00,68.0,65.0,29.95,SW,221,0.0,0.0,91,0.00,,,0.00,,2013-07-28 11:33:00,
2013-07-28 06:43:00,68.0,65.0,29.95,SW,221,0.0,0.0,91,0.00,,,0.00,,2013-07-28 11:43:00,
2013-07-28 06:54:00,68.0,65.0,29.96,SW,221,0.0,0.0,91,0.00,,,0.00,,2013-07-28 11:54:00,
2013-07-28 07:02:00,68.0,66.0,29.96,SW,221,0.0,0.0,92,0.00,,,0.00,,2013-07-28 12:02:00,
2013-07-28 07:12:00,68.0,66.0,29.96,SW,221,0.0,0.0,92,0.00,,,0.00,,2013-07-28 12:12:00,
2013-07-28 07:22:00,68.0,66.0,29.96,SW,221,0.0,0.0,92,0.00,,,0.00,,2013-07-28 12:22:00,
2013-07-28 07:33:00,68.0,66.0,29.97,SW,221,0.0,0.0,92,0.00,,,0.00,,2013-07-28 12:33:00,
2013-07-28 07:43:00,68.0,66.0,29.97,SW,221,0.0,0.0,92,0.00,,,0.00,,2013-07-28 12:43:00,
2013-07-28 07:53:00,69.0,67.0,29.97,SW,221,0.0,0.0,92,0.00,,,0.00,,2013-07-28 12:53:00,
2013-07-28 08:12:00,70.0,68.0,29.98,SW,221,0.0,0.0,92,0.00,,,0.00,,2013-07-28 13:12:00,
2013-07-28 08:22:00,71.0,68.0,29.98,SW,221,0.0,0.0,90,0.00,,,0.00,,2013-07-28 13:22:00,
2013-07-28 08:32:00,74.0,69.0,29.98,WSW,239,0.0,0.0,85,0.00,,,0.00,,2013-07-28 13:32:00,
2013-07-28 08:43:00,74.0,69.0,29.98,WSW,239,0.0,0.0,85,0.00,,,0.00,,2013-07-28 13:43:00,
2013-07-28 08:53:00,76.0,70.0,29.98,NNE,17,0.0,1.0,81,0.00,,,0.00,,2013-07-28 13:53:00,
2013-07-28 09:02:00,77.0,70.0,29.99,North,8,0.0,3.0,79,0.00,,,0.00,,2013-07-28 14:02:00,
2013-07-28 09:12:00,77.0,70.0,29.99,North,8,0.0,3.0,79,0.00,,,0.00,,2013-07-28 14:12:00,
2013-07-28 09:23:00,78.0,71.0,29.99,WNW,298,0.0,2.0,78,0.00,,,0.00,,2013-07-28 14:23:00,
2013-07-28 09:33:00,79.0,71.0,29.99,SW,226,0.0,3.0,76,0.00,,,0.00,,2013-07-28 14:33:00,
2013-07-28 09:43:00,79.0,71.0,29.99,SW,226,0.0,3.0,76,0.00,,,0.00,,2013-07-28 14:43:00,
2013-07-28 09:53:00,80.0,70.0,29.99,West,271,1.0,6.0,72,0.00,,,0.00,,2013-07-28 14:53:00,
2013-07-28 10:02:00,81.0,71.0,29.99,West,281,1.0,5.0,71,0.00,,,0.00,,2013-07-28 15:02:00,
2013-07-28 10:12:00,81.0,71.0,29.99,West,281,1.0,5.0,71,0.00,,,0.00,,2013-07-28 15:12:00,
2013-07-28 10:22:00,81.0,70.0,29.99,WSW,251,0.0,4.0,69,0.00,,,0.00,,2013-07-28 15:22:00,
2013-07-28 10:32:00,82.0,69.0,29.98,West,278,2.0,7.0,66,0.00,,,0.00,,2013-07-28 15:32:00,
2013-07-28 10:43:00,82.0,69.0,29.98,West,278,2.0,7.0,66,0.00,,,0.00,,2013-07-28 15:43:00,
2013-07-28 10:53:00,82.0,69.0,29.98,West,281,1.0,5.0,66,0.00,,,0.00,,2013-07-28 15:53:00,
2013-07-28 11:02:00,83.0,70.0,29.98,East,91,1.0,4.0,64,0.00,,,0.00,,2013-07-28 16:02:00,
2013-07-28 11:12:00,83.0,70.0,29.98,East,91,1.0,4.0,64,0.00,,,0.00,,2013-07-28 16:12:00,
2013-07-28 11:22:00,83.0,69.0,29.98,WSW,248,2.0,5.0,62,0.00,,,0.00,,2013-07-28 16:22:00,
2013-07-28 11:33:00,84.0,70.0,29.98,South,191,1.0,5.0,62,0.00,,,0.00,,2013-07-28 16:33:00,
2013-07-28 11:43:00,84.0,70.0,29.98,South,191,1.0,5.0,62,0.00,,,0.00,,2013-07-28 16:43:00,
2013-07-28 11:52:00,85.0,69.0,29.98,NNW,343,2.0,6.0,59,0.00,,,0.00,,2013-07-28 16:52:00,
2013-07-28 12:02:00,84.0,69.0,29.98,West,259,0.0,5.0,61,0.00,,,0.00,,2013-07-28 17:02:00,
2013-07-28 12:12:00,84.0,69.0,29.98,West,259,0.0,5.0,61,0.00,,,0.00,,2013-07-28 17:12:00,
2013-07-28 12:22:00,84.0,69.0,29.97,SW,224,1.0,5.0,60,0.00,,,0.00,,2013-07-28 17:22:00,
2013-07-28 12:32:00,85.0,70.0,29.96,WSW,254,1.0,5.0,60,0.00,,,0.00,,2013-07-28 17:32:00,
2013-07-28 12:43:00,85.0,70.0,29.96,WSW,254,1.0,5.0,60,0.00,,,0.00,,2013-07-28 17:43:00,
2013-07-28 12:53:00,85.0,69.0,29.97,West,272,1.0,5.0,59,0.00,,,0.00,,2013-07-28 17:53:00,
2013-07-28 13:03:00,86.0,68.0,29.96,West,263,3.0,7.0,55,0.00,,,0.00,,2013-07-28 18:03:00,
2013-07-28 13:12:00,86.0,68.0,29.96,West,263,3.0,7.0,55,0.00,,,0.00,,2013-07-28 18:12:00,
2013-07-28 13:22:00,87.0,68.0,29.96,ENE,65,1.0,6.0,53,0.00,,,0.00,,2013-07-28 18:22:00,
2013-07-28 13:33:00,88.0,68.0,29.96,WSW,256,1.0,3.0,52,0.00,,,0.00,,2013-07-28 18:33:00,
2013-07-28 13:43:00,88.0,68.0,29.96,WSW,256,1.0,3.0,52,0.00,,,0.00,,2013-07-28 18:43:00,
2013-07-28 13:52:00,88.0,68.0,29.95,ENE,77,1.0,4.0,51,0.00,,,0.00,,2013-07-28 18:52:00,
2013-07-28 14:02:00,88.0,68.0,29.95,NW,318,0.0,7.0,52,0.00,,,0.00,,2013-07-28 19:02:00,
2013-07-28 14:12:00,88.0,68.0,29.95,NW,318,0.0,7.0,52,0.00,,,0.00,,2013-07-28 19:12:00,
2013-07-28 14:22:00,88.0,69.0,29.94,WSW,253,1.0,5.0,53,0.00,,,0.00,,2013-07-28 19:22:00,
2013-07-28 14:32:00,89.0,68.0,29.94,WSW,247,0.0,6.0,51,0.00,,,0.00,,2013-07-28 19:32:00,
2013-07-28 14:43:00,89.0,68.0,29.94,WSW,247,0.0,6.0,51,0.00,,,0.00,,2013-07-28 19:43:00,
2013-07-28 14:52:00,91.0,69.0,29.93,WSW,239,1.0,4.0,49,0.00,,,0.00,,2013-07-28 19:52:00,
2013-07-28 15:02:00,93.0,70.0,29.93,North,8,2.0,6.0,47,0.00,,,0.00,,2013-07-28 20:02:00,
2013-07-28 15:12:00,93.0,70.0,29.93,North,8,2.0,6.0,47,0.00,,,0.00,,2013-07-28 20:12:00,
2013-07-28 15:23:00,91.0,69.0,29.93,NNE,18,2.0,6.0,48,0.00,,,0.00,,2013-07-28 20:23:00,
2013-07-28 15:33:00,90.0,69.0,29.92,East,101,0.0,5.0,50,0.00,,,0.00,,2013-07-28 20:33:00,
2013-07-28 15:43:00,90.0,69.0,29.92,East,101,0.0,5.0,50,0.00,,,0.00,,2013-07-28 20:43:00,
2013-07-28 15:53:00,90.0,69.0,29.91,North,353,2.0,6.0,50,0.00,,,0.00,,2013-07-28 20:53:00,
2013-07-28 16:02:00,92.0,69.0,29.91,NE,44,4.0,9.0,47,0.00,,,0.00,,2013-07-28 21:02:00,
2013-07-28 16:12:00,92.0,69.0,29.91,NE,44,4.0,9.0,47,0.00,,,0.00,,2013-07-28 21:12:00,
2013-07-28 16:22:00,93.0,70.0,29.90,North,357,1.0,6.0,47,0.00,,,0.00,,2013-07-28 21:22:00,
2013-07-28 16:33:00,93.0,68.0,29.89,NE,36,0.0,4.0,45,0.00,,,0.00,,2013-07-28 21:33:00,
2013-07-28 16:44:00,93.0,68.0,29.89,NE,36,0.0,4.0,45,0.00,,,0.00,,2013-07-28 21:44:00,
2013-07-28 16:52:00,93.0,68.0,29.89,WSW,258,1.0,7.0,44,0.00,,,0.00,,2013-07-28 21:52:00,
2013-07-28 17:01:00,92.0,68.0,29.88,NE,44,1.0,7.0,45,0.00,,,0.00,,2013-07-28 22:01:00,
2013-07-28 17:12:00,92.0,68.0,29.88,NE,44,1.0,7.0,45,0.00,,,0.00,,2013-07-28 22:12:00,
2013-07-28 17:22:00,93.0,68.0,29.88,SSE,155,2.0,6.0,45,0.00,,,0.00,,2013-07-28 22:22:00,
2013-07-28 17:32:00,93.0,68.0,29.88,NE,37,1.0,4.0,45,0.00,,,0.00,,2013-07-28 22:32:00,
2013-07-28 17:43:00,93.0,68.0,29.88,NE,37,1.0,4.0,45,0.00,,,0.00,,2013-07-28 22:43:00,
2013-07-28 17:52:00,93.0,68.0,29.87,NE,49,1.0,9.0,44,0.00,,,0.00,,2013-07-28 22:52:00,
2013-07-28 18:03:00,93.0,68.0,29.87,NE,35,2.0,5.0,45,0.00,,,0.00,,2013-07-28 23:03:00,
2013-07-28 18:12:00,93.0,68.0,29.87,NE,35,2.0,5.0,45,0.00,,,0.00,,2013-07-28 23:12:00,
2013-07-28 18:22:00,93.0,68.0,29.86,NE,37,1.0,5.0,44,0.00,,,0.00,,2013-07-28 23:22:00,
2013-07-28 18:32:00,93.0,68.0,29.86,WSW,250,0.0,5.0,45,0.00,,,0.00,,2013-07-28 23:32:00,
2013-07-28 18:43:00,93.0,68.0,29.86,WSW,250,0.0,5.0,45,0.00,,,0.00,,2013-07-28 23:43:00,
2013-07-28 18:53:00,93.0,68.0,29.85,West,271,1.0,4.0,45,0.00,,,0.00,,2013-07-28 23:53:00,
2013-07-28 19:02:00,92.0,68.0,29.86,NW,307,0.0,5.0,46,0.00,,,0.00,,2013-07-29 00:02:00,
2013-07-28 19:22:00,91.0,69.0,29.86,NW,318,1.0,4.0,48,0.00,,,0.00,,2013-07-29 00:22:00,
2013-07-28 19:32:00,91.0,69.0,29.86,WSW,252,0.0,4.0,48,0.00,,,0.00,,2013-07-29 00:32:00,
2013-07-28 19:43:00,91.0,69.0,29.86,WSW,252,0.0,4.0,48,0.00,,,0.00,,2013-07-29 00:43:00,
2013-07-28 19:52:00,90.0,68.0,29.87,NNE,18,0.0,3.0,48,0.00,,,0.00,,2013-07-29 00:52:00,
2013-07-28 20:02:00,90.0,69.0,29.88,SW,233,0.0,5.0,50,0.00,,,0.00,,2013-07-29 01:02:00,
2013-07-28 20:12:00,90.0,69.0,29.88,SW,233,0.0,5.0,50,0.00,,,0.00,,2013-07-29 01:12:00,
2013-07-28 20:26:00,89.0,68.0,29.88,NNW,336,0.0,1.0,51,0.00,,,0.00,,2013-07-29 01:26:00,
2013-07-28 20:34:00,89.0,69.0,29.88,West,259,0.0,3.0,52,0.00,,,0.00,,2013-07-29 01:34:00,
2013-07-28 20:43:00,89.0,69.0,29.88,West,259,0.0,3.0,52,0.00,,,0.00,,2013-07-29 01:43:00,
2013-07-28 21:00:00,88.0,70.0,29.89,NNW,328,1.0,8.0,56,0.00,,,0.00,,2013-07-29 02:00:00,
2013-07-28 21:24:00,86.0,70.0,29.90,NW,311,1.0,9.0,60,0.00,,,0.00,,2013-07-29 02:24:00,
2013-07-28 21:36:00,86.0,71.0,29.90,West,263,3.0,10.0,61,0.00,,,0.00,,2013-07-29 02:36:00,
2013-07-28 21:45:00,86.0,71.0,29.90,West,263,3.0,10.0,61,0.00,,,0.00,,2013-07-29 02:45:00,
2013-07-28 21:58:00,86.0,71.0,29.90,NW,318,1.0,6.0,61,0.00,,,0.00,,2013-07-29 02:58:00,
2013-07-28 22:24:00,85.0,71.0,29.91,SW,233,0.0,5.0,63,0.00,,,0.00,,2013-07-29 03:24:00,
2013-07-28 22:35:00,85.0,71.0,29.92,West,270,1.0,5.0,64,0.00,,,0.00,,2013-07-29 03:35:00,
2013-07-28 22:47:00,85.0,71.0,29.92,West,270,1.0,5.0,64,0.00,,,0.00,,2013-07-29 03:47:00,
2013-07-28 22:58:00,84.0,71.0,29.92,West,263,1.0,4.0,65,0.00,,,0.00,,2013-07-29 03:58:00,
2013-07-28 23:02:00,84.0,71.0,29.92,West,270,0.0,5.0,65,0.00,,,0.00,,2013-07-29 04:02:00,
2013-07-28 23:12:00,84.0,71.0,29.92,West,270,0.0,5.0,65,0.00,,,0.00,,2013-07-29 04:12:00,
2013-07-28 23:22:00,84.0,71.0,29.92,NE,49,1.0,8.0,65,0.00,,,0.00,,2013-07-29 04:22:00,
2013-07-28 23:32:00,84.0,71.0,29.92,WNW,298,2.0,7.0,66,0.00,,,0.00,,2013-07-29 04:32:00,
2013-07-28 23:43:00,84.0,71.0,29.92,WNW,298,2.0,7.0,66,0.00,,,0.00,,2013-07-29 04:43:00,
2013-07-28 23:53:00,84.0,72.0,29.93,SW,233,0.0,5.0,67,0.00,,,0.00,,2013-07-29 04:53:00,